Home   Weather   34°13'N, 92°00'W   Past weeks
Flag for USA

Past Weather in 34°13'N, 92°00'W, USA — Yesterday and Last 2 Weeks

Now
64 °F

Passing clouds.


Feels Like: 64 °F
Forecast: 82 / 63 °F
Wind: 5 mph from West

Location: Adams Field

Current Time: May 29, 2020 at 2:56:49 am

Latest Report: May 29, 2020 at 1:53 am


Visibility: 10 mi

Pressure: 29.99 "Hg

Humidity: 94%

Dew Point: 62 °F

Location of 34°13'N, 92°00'WLocation

Past Weather in 34°13'N, 92°00'W — Graph

°F

34°13'N, 92°00'W Temperature Yesterday

Maximum temperature yesterday: 76 °F (at 1:53 pm)
Minimum temperature yesterday: 62 °F (at 2:53 am)
Average temperature yesterday: 68 °F

High & Low Weather Summary for the Past Weeks

 TemperatureHumidityPressure
High87 °F (May 25, 4:53 pm)97% (May 14, 7:05 am)30.06 "Hg (May 14, 7:05 am)
Low56 °F (May 19, 4:53 am)42% (May 18, 1:53 pm)29.70 "Hg (May 17, 2:53 am)
Average71 °F79%29.89 "Hg
* Reported May 14 12:53 am — May 29 12:53 am, 34°13'N, 92°00'W. Weather by CustomWeather, © 2020

Note: Actual official high and low records may vary slightly from our data, if they occured in-between our weather recording intervals... More about our weather records

34°13'N, 92°00'W Weather History for the Previous 24 Hours

Scroll right to see more
 ConditionsComfort  
Time TempWeatherWind HumidityBarometerVisibility
12:53 am
Fri, May 29
63 °FPartly cloudy.5 mph97%29.97 "Hg10 mi
11:53 pm
Thu, May 28
64 °FPassing clouds.8 mph94%29.98 "Hg10 mi
10:53 pm65 °FPassing clouds.7 mph87%29.98 "Hg10 mi
9:53 pm67 °FPassing clouds.6 mph87%29.97 "Hg10 mi
8:53 pm68 °FPassing clouds.7 mph84%29.95 "Hg10 mi
7:53 pm69 °FScattered clouds.8 mph73%29.93 "Hg10 mi
6:53 pm73 °FScattered clouds.10 mph69%29.90 "Hg10 mi
5:53 pm76 °FBroken clouds.8 mph64%29.90 "Hg10 mi
4:53 pm73 °FBroken clouds.8 mph79%29.89 "Hg10 mi
3:53 pm67 °FLight rain. Broken clouds.7 mph90%29.90 "Hg10 mi
2:53 pm75 °FPartly sunny.14 mph60%29.89 "Hg10 mi
1:53 pm76 °FMostly cloudy.9 mph62%29.91 "Hg10 mi
1:02 pm73 °FMostly cloudy.9 mph71%29.93 "Hg10 mi
12:53 pm73 °FBroken clouds.9 mph74%29.93 "Hg10 mi
11:53 am69 °FCloudy.3 mph84%29.96 "Hg10 mi
10:53 am68 °FLight rain. Cloudy.9 mph84%29.95 "Hg10 mi
9:53 am68 °FMore clouds than sun.8 mph78%29.94 "Hg10 mi
8:53 am68 °FMore clouds than sun.5 mph87%29.93 "Hg10 mi
7:53 am65 °FLight rain. More clouds than sun.6 mph91%29.92 "Hg10 mi
7:34 am65 °FLight rain. Mostly cloudy.6 mph91%29.92 "Hg10 mi
6:53 am65 °FCloudy.5 mph91%29.91 "Hg7 mi
5:53 am63 °FPartly cloudy.No wind93%29.90 "Hg10 mi
4:53 am63 °FPartly cloudy.No wind93%29.87 "Hg10 mi
3:53 am62 °FPassing clouds.3 mph96%29.87 "Hg10 mi
2:53 am62 °FPassing clouds.No wind96%29.87 "Hg10 mi
Weather by CustomWeather, © 2020

See weather overview

Advertising